EHI
0 0 0 0 0 0 0 0 0 0 0 0 2 6 9 12 14 15 15 14 15 15 16 17 21 25 25 23 23 22 22 20 18 15 13 10 6 4 6 7 9 9 9 8
0 0 0 0 0 0 0 0 0 0 0 0 2 6 9 12 15 16 14 14 15 17 20 23 26 31 34 32 29 27 24 22 20 17 13 8 5 4 5 7 8 8 9 9
0 0 0 0 0 0 0 0 0 0 0 0 2 5 9 12 16 18 17 16 18 23 28 32 36 41 45 44 39 34 29 26 24 21 15 9 5 4 4 6 8 8 9 10
0 0 0 0 0 0 0 0 0 0 0 0 1 4 7 11 16 21 23 22 24 28 34 39 42 47 52 52 46 38 33 30 28 26 21 13 8 5 4 5 8 9 10 10
0 0 0 0 0 0 0 0 0 0 0 0 1 2 4 9 17 23 27 29 30 32 37 39 41 47 54 57 52 43 38 34 30 29 26 20 12 7 5 5 7 8 9 10
0 0 0 0 0 0 0 0 0 0 0 0 0 1 2 7 17 23 27 32 36 37 38 37 38 45 54 60 59 49 42 37 32 29 27 22 16 11 8 6 7 8 8 9
0 0 0 0 0 0 0 0 0 0 0 0 0 0 2 6 15 23 27 34 41 43 41 39 40 45 52 59 59 52 44 38 33 29 27 23 19 15 11 9 9 8 7 7
0 0 0 0 0 0 0 0 0 0 0 0 0 1 4 9 16 25 31 36 43 46 45 44 44 47 50 53 53 52 47 41 36 32 28 23 20 18 14 11 9 9 7 5
0 0 0 0 0 0 0 0 0 0 0 0 1 2 5 12 20 28 35 39 41 44 47 48 48 48 46 45 47 51 51 46 40 36 30 24 21 20 17 12 9 8 7 5
0 0 0 0 0 0 0 0 0 0 0 0 0 1 4 11 20 28 35 38 36 39 45 48 49 47 43 41 44 49 51 49 43 37 31 26 23 21 18 14 11 10 8 6
0 0 0 0 0 0 0 0 0 0 0 0 0 0 2 9 17 24 31 33 32 34 38 43 47 48 44 43 44 46 49 49 45 40 33 29 25 22 20 17 14 12 10 9
0 0 0 0 0 0 0 0 0 0 0 0 0 0 3 9 16 21 25 29 30 31 32 37 45 50 48 46 45 46 47 48 46 42 37 32 26 23 21 20 17 16 15 13
0 0 0 0 0 0 0 0 0 0 0 0 0 1 4 12 20 24 27 30 31 31 32 36 44 49 47 45 47 47 46 46 45 44 41 35 29 26 25 23 20 18 19 18
0 0 0 0 0 0 0 0 0 0 0 0 0 1 6 14 23 30 33 35 36 37 38 38 42 45 44 44 46 47 46 44 43 44 44 39 33 30 28 25 20 18 21 22
0 0 0 0 0 0 0 0 0 0 0 0 0 1 5 14 26 35 39 40 41 45 45 41 39 41 42 41 41 43 43 42 41 42 43 41 37 33 31 26 20 19 21 23
0 0 0 0 0 0 0 0 0 0 0 0 0 1 6 17 30 38 41 41 43 45 45 41 37 38 39 37 35 36 37 38 38 38 40 41 40 38 35 29 24 21 21 21
0 0 0 0 0 0 0 0 0 0 0 0 0 3 11 21 31 38 40 40 39 40 40 37 34 35 36 34 32 31 31 34 35 34 35 37 39 39 37 32 26 23 22 22
0 0 0 0 0 0 0 0 0 0 0 0 1 6 14 24 30 37 40 38 36 35 35 34 33 33 32 31 29 28 29 31 32 32 31 32 33 36 35 30 25 23 22 21
0 0 0 0 0 0 0 0 1 1 1 2 5 11 19 27 33 37 37 35 33 31 31 33 33 32 30 28 28 28 27 27 28 29 29 29 29 31 32 28 23 21 21 20
0 0 0 0 0 0 0 2 3 3 3 4 9 16 22 27 31 31 32 32 30 29 30 32 33 32 29 27 28 28 26 24 24 25 26 27 28 29 28 25 23 22 21 19
0 0 0 0 0 0 1 3 4 3 4 7 11 17 21 24 26 27 30 33 33 32 32 33 34 32 27 26 26 25 23 21 20 21 23 26 27 26 24 23 23 22 21 20
0 0 0 0 0 0 1 3 2 3 6 10 14 17 21 24 27 29 31 34 36 35 33 34 33 29 23 21 21 19 18 17 17 19 21 22 22 21 20 20 22 23 22 20
0 0 1 2 2 2 3 3 3 5 9 13 16 18 22 26 29 30 31 31 33 33 31 30 28 24 21 18 16 15 14 14 15 16 16 16 17 17 17 17 19 21 20 19
1 1 2 5 6 6 7 7 7 8 10 13 15 17 21 24 26 28 29 29 28 28 27 25 23 21 19 16 13 12 12 13 14 14 13 12 13 13 13 12 13 14 14 14
1 1 2 4 6 8 9 10 10 9 10 12 14 16 19 20 22 25 27 26 25 25 23 22 20 17 14 11 10 10 11 11 13 14 13 12 11 9 8 6 6 6 6 6
1 0 1 2 4 6 8 9 10 11 11 12 14 18 19 18 20 23 24 24 23 22 21 19 17 14 10 8 7 9 10 10 12 14 14 13 10 7 5 3 2 1 2 2
Wind_Speed
2 3 3 7 7 7 4 2 3 5 4 4 6 8 13 13 12 12 11 11 12 11 10 10 10 10 9 8 7 7 6 5 4 2 2 1 1 1 1 2 3 4 3 3
3 4 9 6 4 3 3 2 3 3 2 4 4 6 9 12 15 16 16 14 13 10 9 10 10 10 10 10 8 7 7 6 5 3 2 2 2 1 2 2 2 3 3 3
6 8 5 4 4 2 3 4 4 3 2 1 4 1 3 6 7 9 11 13 13 15 14 13 12 11 11 10 10 8 7 6 5 4 2 1 1 1 1 0 1 3 4 4
5 7 4 3 5 4 5 6 4 3 3 2 4 2 5 5 6 8 10 11 13 13 12 12 12 12 12 11 9 8 7 6 5 5 4 4 3 2 3 2 2 2 3 4
6 4 3 5 7 4 6 4 2 2 3 1 1 4 6 2 6 9 11 13 13 13 14 14 13 13 12 10 9 8 7 6 5 5 5 4 3 2 1 1 1 2 2 2
6 4 4 6 5 3 1 4 6 5 5 1 4 5 5 5 10 10 11 12 12 12 11 11 10 9 8 8 8 7 7 6 5 5 5 5 4 3 2 1 1 1 1 1
4 5 4 2 1 3 4 7 4 5 4 5 4 3 8 8 10 12 13 12 11 11 11 10 9 10 10 10 9 8 7 6 6 5 4 5 4 4 4 3 2 2 1 1
3 6 5 4 6 5 3 10 8 5 5 5 3 4 7 6 7 9 10 10 11 11 11 12 11 11 11 11 10 9 9 7 7 6 5 4 4 3 2 3 2 2 2 2
5 7 6 5 5 7 4 4 9 7 2 0 4 3 4 1 4 6 8 9 10 10 11 12 11 11 10 10 10 11 10 7 7 6 5 4 3 3 2 2 2 2 2 2
5 4 5 3 1 1 6 6 6 6 4 2 3 3 5 4 5 6 7 8 8 8 9 9 10 10 10 9 9 9 9 9 7 6 5 4 3 3 2 2 1 1 1 1
3 3 4 1 4 6 2 2 5 5 6 6 3 7 7 8 8 9 9 8 8 9 9 9 9 9 8 8 8 9 8 7 6 6 5 4 3 3 2 1 1 1 0 0
4 5 2 6 6 6 6 6 7 5 4 5 4 8 4 6 5 8 8 8 9 9 8 8 8 8 7 7 7 7 8 8 7 6 5 4 4 3 3 2 1 1 0 0
5 6 2 6 7 3 1 3 5 6 5 4 4 6 2 3 4 5 7 7 6 7 6 6 7 8 7 7 6 7 7 7 6 6 5 4 3 3 3 2 2 1 1 1
7 6 7 8 7 4 3 4 3 6 4 4 6 5 2 2 4 4 5 7 7 6 8 7 6 7 7 6 6 5 5 6 6 6 5 5 4 4 3 2 2 1 1 1
7 4 3 4 5 3 3 5 4 4 7 7 7 7 8 8 8 7 7 7 8 7 7 8 7 6 7 6 5 5 3 4 5 6 5 5 4 3 3 2 2 2 2 1
5 4 2 2 3 3 3 4 3 4 4 4 5 5 5 5 5 6 7 8 8 8 8 8 8 8 8 8 6 5 4 3 4 5 5 4 3 3 3 2 2 2 2 1
3 5 4 2 4 3 4 4 3 2 2 6 6 6 4 6 8 8 8 8 8 8 8 8 8 7 7 7 7 6 4 4 5 5 4 4 3 3 3 3 3 2 2 2
6 5 4 2 2 4 8 5 3 3 0 2 4 6 9 9 8 6 7 9 9 8 8 6 7 7 6 6 6 6 4 4 5 5 4 4 3 3 3 3 3 2 2 2
7 8 5 4 2 5 6 3 2 3 1 1 5 6 7 8 7 3 3 8 9 9 7 6 6 6 6 7 7 7 5 4 4 4 4 4 4 3 3 2 2 2 3 3
6 7 6 4 3 6 7 6 1 5 1 3 4 8 9 8 5 3 4 8 8 8 7 6 6 6 6 5 6 7 5 4 4 4 4 3 4 4 3 3 2 2 3 3
4 4 4 4 3 6 6 5 2 5 6 4 4 7 7 5 7 7 7 8 8 8 8 8 8 7 5 6 7 7 5 4 4 4 4 4 4 4 3 3 3 3 3 3
5 4 4 4 3 8 4 2 3 6 4 3 4 4 5 6 7 8 9 8 8 8 7 8 8 6 5 6 7 6 4 3 4 5 5 4 3 3 4 4 3 3 3 4
4 7 6 7 7 6 2 3 3 5 5 3 4 5 8 7 7 8 7 7 7 7 6 6 8 7 4 5 7 6 3 4 5 6 5 4 3 3 3 4 4 3 2 2
3 1 3 1 1 1 2 3 4 5 5 5 6 6 7 8 7 7 7 7 6 6 6 6 7 7 5 4 5 5 5 5 6 6 5 4 4 4 3 3 3 3 2 1
3 0 2 1 1 3 5 3 4 6 6 7 6 5 6 8 7 7 7 7 6 5 4 5 6 6 5 4 4 4 5 5 5 5 4 4 4 4 4 3 3 2 1 2
2 3 4 5 5 4 2 0 4 7 6 6 6 5 5 7 7 7 6 5 6 6 5 5 5 5 4 4 4 3 4 5 6 4 4 3 3 3 3 3 3 5 3 2
Wind_Direction
323 71 231 230 207 195 198 206 236 240 199 146 162 167 173 175 172 173 175 174 176 178 175 170 166 162 156 159 159 163 162 166 155 144 148 154 184 196 190 194 191 189 187 175
23 260 236 230 236 218 205 227 257 283 190 155 166 187 184 177 181 182 180 180 179 172 166 169 166 163 164 167 168 166 169 172 171 172 172 175 178 201 202 204 194 196 193 186
200 240 232 210 233 244 262 207 223 223 327 40 118 26 200 200 187 179 180 180 177 175 174 174 170 171 168 171 173 173 175 174 177 171 151 126 82 33 15 263 225 213 202 198
240 247 237 219 232 195 258 240 199 176 119 252 137 178 259 201 176 176 181 180 181 180 175 176 174 174 176 178 173 170 172 172 173 163 155 157 163 190 218 212 219 230 215 207
249 229 211 229 237 205 223 231 189 182 140 23 31 127 274 199 181 194 192 187 184 181 178 179 179 179 178 174 170 169 166 168 168 166 168 166 177 203 222 213 213 237 243 228
245 253 208 216 240 214 195 47 27 44 69 325 241 151 251 219 197 194 193 189 184 179 176 176 176 167 168 167 167 168 164 167 167 167 171 175 182 190 181 200 203 224 254 259
295 292 270 208 286 331 84 84 33 4 14 250 253 156 231 224 191 180 182 183 176 169 168 167 168 170 169 173 174 171 170 174 174 173 182 184 184 179 182 194 201 206 219 251
207 268 252 206 176 190 169 135 154 185 213 271 317 209 246 223 183 170 166 167 165 167 171 173 175 173 172 176 175 174 179 180 176 177 192 192 181 178 190 195 193 204 211 227
186 247 263 225 183 153 149 169 168 140 176 256 291 289 320 79 127 146 150 150 164 173 173 172 172 167 169 171 174 178 177 178 182 187 186 183 179 174 183 196 201 215 224 233
167 235 268 245 132 168 162 159 98 111 146 226 280 252 222 197 164 157 160 161 174 174 171 169 167 166 170 172 171 172 175 180 185 186 184 180 178 177 183 179 186 199 229 260
156 168 291 331 185 204 164 119 115 125 153 158 216 260 224 193 181 168 172 173 177 176 170 170 169 165 161 159 162 169 173 171 173 177 177 177 169 173 170 166 191 196 200 171
158 124 244 256 247 194 169 174 148 152 215 166 169 263 268 185 176 159 164 171 170 171 169 166 160 150 150 154 160 167 170 171 176 176 170 175 170 159 158 164 181 180 178 131
139 111 69 336 333 343 188 190 160 143 135 154 162 259 318 108 125 144 147 151 149 150 148 144 143 143 149 155 162 165 168 172 170 166 166 167 163 163 170 179 176 159 147 101
118 116 154 189 214 237 267 268 195 134 154 194 202 213 243 152 145 142 138 137 132 134 140 138 143 146 147 148 149 154 168 167 162 159 159 162 171 169 171 169 158 149 149 138
108 136 179 213 234 228 250 261 238 175 177 179 209 194 207 189 169 157 144 136 131 133 138 142 151 151 146 140 139 137 153 164 159 153 158 170 172 153 145 149 158 148 141 146
94 136 130 314 307 314 289 274 243 203 177 170 161 214 219 172 134 124 136 141 141 145 144 147 151 150 149 147 145 137 140 146 138 148 158 160 153 145 147 154 142 128 124 120
115 122 120 254 305 1 282 252 215 209 186 162 179 213 167 144 146 151 154 149 152 150 145 148 150 154 153 150 149 148 156 155 150 152 152 149 149 150 153 144 127 123 118 103
130 113 124 146 51 226 245 240 158 138 91 150 154 166 162 161 160 154 149 147 147 145 143 147 150 152 150 146 143 144 146 147 148 147 146 146 144 143 143 135 135 135 127 114
133 129 120 124 175 260 279 278 148 141 266 179 140 152 149 131 96 68 139 141 146 147 144 144 141 137 139 142 142 135 138 140 137 140 142 146 143 141 134 134 142 140 126 113
84 105 116 130 160 225 247 273 243 110 267 279 142 149 150 130 130 200 173 137 133 135 133 131 127 118 123 128 126 122 130 138 145 148 145 142 139 138 140 142 132 125 123 123
69 72 123 149 199 256 254 279 70 137 220 246 158 152 149 156 173 164 141 128 130 132 132 129 122 120 129 130 125 125 133 147 146 127 117 112 116 120 120 111 102 105 113 106
163 154 172 150 187 250 279 36 156 200 194 154 133 133 121 122 120 123 125 123 118 117 122 125 118 118 125 124 122 124 136 150 127 117 110 105 104 109 104 99 94 96 112 112
182 182 176 179 208 236 251 181 194 152 135 122 112 115 116 117 119 119 123 125 122 122 120 120 122 120 119 126 130 133 146 132 124 120 114 112 108 98 103 109 107 95 95 111
310 91 121 119 257 283 18 62 68 104 118 121 121 123 120 124 127 125 126 124 120 120 125 124 120 119 123 125 130 142 148 141 128 125 123 116 106 92 80 82 89 99 95 103
250 359 94 135 244 41 22 38 82 79 80 87 87 101 118 123 129 130 129 128 126 125 128 129 131 134 138 135 133 141 138 128 122 125 124 115 108 106 91 74 62 86 118 199
254 180 163 202 205 153 205 341 88 91 86 86 88 78 91 119 132 126 128 134 135 138 134 133 131 135 140 137 135 141 140 132 132 131 132 131 129 124 114 109 71 43 43 37